Regional Weather Roundup
Issued by NWS

Home | Current Version | Previous Version | Text Only | Print | Product List | Glossary On
Versions: 1 2 3 4 5 6 7 8 9 10 11 12 13 14 15 16 17 18 19 20 21 22 23 24 25 26 27 28 29 30 31 32 33 34 35 36 37 38 39 40 41 42 43 44 45 46 47 48 49 50
000
ASUS43 KLOT 241108
RWRIL

ILLINOIS REGIONAL WEATHER ROUNDUP
NATIONAL WEATHER SERVICE CHICAGO/ROMEOVILLE IL
600 AM CDT FRI MAR 24 2017

NOTE: "FAIR" INDICATES FEW OR NO CLOUDS BELOW 12,000 FEET WITH NO
SIGNIFICANT WEATHER AND/OR OBSTRUCTIONS TO VISIBILITY.

* THESE STATIONS ARE NOT UNDER NWS QUALITY CONTROL. THEY ALSO MAY NOT
  REPORT WEATHER SUCH AS PRECIPITATION OR FOG.

ILZ001-002-007-009-015-016-024-241200-
NORTHWEST ILLINOIS

CITY           SKY/WX    TMP DP  RH WIND       PRES   REMARKS
MOLINE         CLEAR     54  44  69 S9        29.85R
STERLING*      CLOUDY    49  43  80 VRB3      29.88S
SAVANNA*       PTCLDY    43  40  91 S5        29.86R
$$

ILZ003-004-008-010-011-017-018-241200-
NORTH CENTRAL ILLINOIS

CITY           SKY/WX    TMP DP  RH WIND       PRES   REMARKS
ROCKFORD       CLOUDY    46  41  82 S9        29.89S
FREEPORT*      PTCLDY    48  43  81 S17       29.86S
ROCHELLE*      CLOUDY    46  41  82 S14       29.89S
DE KALB*       PTCLDY    45  40  84 S15       29.90R
PERU*          CLOUDY    45  40  82 S13       29.92S
$$

ILZ005-006-012>014-019>023-241200-
NORTHEAST ILLINOIS

CITY           SKY/WX    TMP DP  RH WIND       PRES   REMARKS
CHICAGO-OHARE  CLOUDY    51  40  65 SW13      29.90S
CHICAGO-MIDWAY MOCLDY    52  42  69 SW12G18   29.93R
AURORA         CLOUDY    45  38  76 S10       29.92R
LANSING*       CLOUDY    49  44  82 S10       29.95R
JOLIET*        CLOUDY    51  44  77 S6        29.94S
WAUKEGAN       CLOUDY    49  41  74 SW13      29.89S
DUPAGE AIRPORT CLOUDY    47  41  80 S9        29.91R
KANKAKEE*      CLOUDY    49  42  76 CALM      29.99R
WHEELING       PTCLDY    48  42  80 S9        29.92S
MORRIS*        PTCLDY    46  40  81 CALM      29.93R
ROMEOVILLE*    CLOUDY    47  44  88 S12       29.93S
NORTHERLY ISL    N/A     51  40  65 S9          N/A
$$

LMZ740>746-241200-
SOUTHERN LAKE MICHIGAN

STATION/POSITION SKY/WX   TEMP    WIND        PRES    VSBY  WAVE
                          AIR SEA DIR/SP/G                  HT/PER
                          (F)     (DEG/KT/KT) (MB)    (MI)  (FT/S)
HARRISON CRIB              49     200/ 19/ 22   N/A
BURNHAM HARBOR             51     220/  4/ 11   N/A
CALUMET HARBOR             51     190/  9/ 12 1012.8R
BURNS HARBOR               50     180/ 16/ 22 1013.9F
MICHIGAN CITY              52     160/ 17/ 22   N/A
$$

ILZ025>027-034>036-040-047-049-050-058-095>099-241200-
WEST-CENTRAL ILLINOIS

CITY           SKY/WX    TMP DP  RH WIND       PRES   REMARKS
QUINCY         CLOUDY    56  48  74 S9        29.92R
GALESBURG*     CLEAR     47  43  84 S12       29.89S
MACOMB*        CLEAR     47  44  87 S13       29.93S
JACKSONVILLE*  PTCLDY    49  44  81 S3        29.96R
PITTSFIELD*    PTCLDY    50  46  85 CALM      29.96R
$$

ILZ028>032-037-038-041>044-048-051>054-059>061-241200-
CENTRAL ILLINOIS

CITY           SKY/WX    TMP DP  RH WIND       PRES   REMARKS
PONTIAC        CLOUDY    54  47  76 S9        29.98R
BLOOMINGTON    CLOUDY    49  44  83 S14       29.98R
DECATUR        CLOUDY    52  45  77 S12       29.98R
PEORIA         CLEAR     47  42  83 S7        29.95R
LACON*         PTCLDY    49  43  80 S9        29.93S
LINCOLN*       CLEAR     45  43  93 CALM      29.98R
SPRINGFIELD    CLEAR     51  45  79 S6        29.98R
TAYLORVILLE    CLEAR     52  46  82 S9        29.98R
$$

ILZ033-039-045-046-055>057-062-063-241200-
EAST-CENTRAL ILLINOIS

CITY           SKY/WX    TMP DP  RH WIND       PRES   REMARKS
CHAMPAIGN      CLOUDY    52  44  74 S7        30.01R
RANTOUL*       PTCLDY    50  46  85 S10       30.00R
MATTOON        CLOUDY    55  47  74 S14G21    30.00R
PARIS*         PTCLDY    56  48  74 S17G25    30.03R
$$

ILZ079-100>102-241200-
SOUTHWEST ILLINOIS

CITY           SKY/WX    TMP DP  RH WIND       PRES   REMARKS
ALTON          PTCLDY    46  43  91 E3        29.96S
BELLEVILLE     CLEAR     57  54  89 SE9       29.96R
CAHOKIA*       CLEAR     57  49  74 SE8       29.95R
SPARTA*        CLEAR     63  53  69 S15       30.00R
$$

ILZ064>066-069>071-074>076-080>082-084>086-088>090-092>094-241200-
SOUTH-CENTRAL ILLINOIS

CITY           SKY/WX    TMP DP  RH WIND       PRES   REMARKS
CARBONDALE     CLEAR     62  54  74 S16G26    30.02R
CAIRO*         CLEAR     63  56  77 S17G23    30.06R
EFFINGHAM*     PTCLDY    53  48  82 SE7       30.03R
MARION         CLEAR     63  55  77 S15G24    30.04R
MT. VERNON     PTCLDY    59  52  77 S12       30.03R
CENTRALIA*     CLEAR     58  52  79 S10       30.00R
SALEM*         PTCLDY    60  50  69 S9        30.00S
METROPOLIS*    CLEAR     63  55  77 S8        30.09R
$$

ILZ067-068-072-073-078-083-087-091-241200-
SOUTHEAST ILLINOIS

CITY           SKY/WX    TMP DP  RH WIND       PRES   REMARKS
LAWRENCEVILLE  CLEAR     52  47  83 S8        30.07R
FLORA*         CLEAR     53  48  84 S8        30.04R
FAIRFIELD*     CLOUDY    57  51  80 S7        30.04R
HARRISBURG*    CLEAR     61  54  77 S13       30.05R
ROBINSON*      CLOUDY    54  46  75 S12       30.06S
CARMI*         CLEAR     54  50  85 S9        30.06R
$$

ABBREVIATIONS USED IN REMARKS
   TC - TEMPERATURE IN CELSIUS
  WCI - WIND CHILL INDEX
   HX - HEAT INDEX
  VSB - VISIBILITY
$$




USA.gov is the U.S. government's official web portal to all federal, state and local government web resources and services.